Wind_Speed
6 7 7 7 7 7 7 8 7 8 8 9 9 9 9 9 9 9 10 9 9 9 9 9 8 8 8 8 8 8 8 7 7 7 7 7 6 5 5 5 5 5 5
7 7 8 8 8 8 8 8 9 8 8 8 9 9 10 10 9 10 10 10 9 10 10 10 10 10 10 9 9 9 8 8 8 7 6 6 6 6 6 6 6 6 6
8 8 9 9 9 8 8 8 8 8 8 8 8 8 8 9 9 9 9 10 10 11 10 10 11 11 11 11 10 9 8 8 7 7 7 7 7 7 6 6 6 6 6
9 9 9 9 9 9 8 9 9 9 8 7 7 8 8 9 9 9 9 10 10 9 10 10 11 11 11 11 11 10 9 8 8 8 7 7 7 7 6 6 6 6 7
10 10 10 9 9 9 9 9 9 9 9 8 8 8 9 9 9 9 9 9 9 9 9 10 10 11 12 11 11 11 10 9 9 9 9 9 8 7 7 7 7 7 7
10 10 10 10 9 9 10 10 10 10 10 9 9 10 10 10 10 9 9 9 9 9 9 9 9 10 10 10 10 10 10 9 9 9 9 9 9 8 8 7 7 7 7
10 10 9 9 9 9 9 10 10 11 11 10 10 10 9 10 10 10 10 9 9 9 10 10 9 9 10 10 10 10 10 10 10 10 10 10 10 9 9 9 9 9 8
10 10 10 9 9 9 9 10 11 11 11 11 11 10 10 10 10 10 10 10 10 10 10 10 10 10 10 10 10 10 10 10 10 10 10 9 10 10 10 10 10 10 10
11 10 10 9 9 9 9 10 11 11 11 11 11 10 11 11 11 11 11 11 10 10 11 10 10 11 10 10 10 11 10 11 11 10 10 10 11 11 11 11 11 11 11
11 10 9 9 10 10 10 10 11 12 12 12 11 11 11 11 11 12 12 12 11 11 12 11 12 12 11 11 11 11 11 11 12 12 11 11 11 12 11 12 12 12 12
11 10 10 9 9 10 11 11 11 12 12 12 11 11 11 11 11 11 11 11 12 12 12 12 12 12 12 12 11 12 12 11 12 12 12 12 12 12 12 12 12 13 13
11 11 10 9 9 11 11 12 12 12 13 12 11 10 10 11 10 10 11 12 12 12 12 13 13 13 13 13 12 13 13 13 13 13 13 12 12 12 12 12 13 13 14
10 11 11 11 11 11 11 12 12 12 12 11 11 11 10 11 12 11 12 12 12 12 13 13 14 14 15 14 14 14 14 15 15 14 13 13 13 13 13 14 14 15 15
11 12 13 12 12 12 12 12 11 12 12 12 12 12 12 12 12 13 13 14 14 13 14 14 14 15 15 15 15 15 15 15 15 15 15 14 14 14 15 16 16 17 17
12 12 12 13 12 13 13 12 12 12 12 12 13 12 13 13 14 14 14 15 15 15 15 16 15 15 15 15 16 16 16 16 16 16 16 15 15 16 16 16 17 17 17
13 14 14 14 13 13 13 13 13 13 14 14 13 13 13 14 14 14 14 15 15 15 16 16 17 17 17 17 16 16 15 16 16 16 17 17 17 17 17 17 18 18 18
15 15 15 14 14 14 14 14 14 14 13 13 14 14 14 14 13 14 14 14 15 15 15 16 17 17 17 16 16 16 16 17 17 18 18 18 18 18 18 19 19 19 20
16 15 15 15 15 14 15 15 14 14 14 15 15 15 15 15 15 15 15 15 14 15 16 17 17 16 17 17 18 19 18 18 18 18 19 19 19 19 20 20 20 20 21
17 16 16 15 15 15 15 14 14 14 14 15 15 15 15 15 14 15 16 16 16 16 16 17 17 17 18 18 19 20 20 20 20 20 20 21 21 21 22 22 22 23 23
16 15 15 15 14 14 14 13 13 13 14 14 14 14 14 14 15 15 16 16 16 17 17 17 17 18 18 19 20 20 21 21 21 22 22 22 22 23 23 23 23 24 23
17 16 15 15 14 14 14 14 14 14 14 14 14 15 15 15 15 15 16 17 17 17 17 17 18 18 19 20 20 21 21 22 22 23 23 23 23 23 24 24 24 24 25
19 18 17 16 15 15 15 15 15 15 15 15 15 14 14 14 15 16 17 18 17 17 17 18 18 19 20 21 22 23 23 23 23 23 23 23 24 24 24 25 25 26 27
19 18 18 16 16 15 16 16 15 15 15 15 15 15 15 15 16 17 17 18 18 18 18 18 18 19 19 20 21 22 23 24 24 25 24 24 24 25 25 26 28 29 31
19 17 16 16 16 16 16 17 16 17 17 17 17 17 17 18 18 18 18 19 19 19 20 20 20 21 21 21 21 22 24 24 25 25 26 27 27 27 28 29 30 32 33
19 17 16 16 16 17 17 17 18 18 18 18 18 18 19 19 19 19 19 19 20 20 21 21 21 22 22 22 23 24 25 25 26 26 27 27 28 29 31 32 33 34 35
20 18 18 17 18 17 17 18 18 18 19 19 19 19 19 19 19 20 20 20 21 22 22 23 24 25 25 26 26 26 26 26 27 27 28 29 30 32 33 34 35 36 37
Wind_Direction
289 283 282 286 289 281 276 273 267 269 255 252 248 247 249 253 258 263 258 257 260 259 261 256 254 256 258 256 257 256 253 255 260 263 268 273 270 270 275 280 275 273 276
286 282 280 284 286 280 272 264 261 261 255 250 245 249 249 251 257 265 259 259 260 259 261 254 250 252 255 255 255 257 256 257 259 259 259 259 262 266 270 273 273 270 273
281 282 281 283 283 279 270 264 258 260 258 255 249 248 252 255 260 264 259 257 258 259 259 252 252 251 252 253 253 254 252 253 255 256 259 259 258 261 266 267 266 268 272
277 276 275 280 283 277 267 262 258 258 259 258 254 251 254 257 258 261 261 258 254 256 255 253 254 252 251 251 249 249 250 248 251 255 260 262 257 258 262 262 259 264 268
274 273 274 279 279 273 266 262 256 256 256 256 256 253 252 252 255 260 258 257 254 253 255 254 255 254 249 248 248 247 246 247 253 259 261 260 257 259 259 258 261 262 262
267 271 274 279 276 269 266 261 257 254 255 258 258 256 254 253 256 257 255 251 253 251 250 252 253 250 243 241 245 246 245 248 252 257 260 261 257 256 254 254 257 259 261
263 268 269 275 275 273 270 263 257 255 255 257 259 259 255 254 254 254 252 249 248 249 251 250 250 246 239 240 244 246 247 251 254 257 261 261 259 259 255 252 254 256 262
261 263 262 265 268 269 270 264 258 255 255 256 258 256 253 252 251 251 250 247 245 245 246 248 248 243 242 243 243 246 250 252 254 257 261 262 262 260 256 252 252 256 261
258 258 258 257 265 267 266 262 258 256 257 259 258 257 255 252 251 248 248 245 246 246 242 242 244 243 242 242 245 247 250 253 252 255 263 266 264 262 259 256 255 255 258
255 253 257 258 261 265 264 260 256 256 254 256 259 257 255 252 250 246 245 244 248 249 245 241 243 242 241 245 249 251 252 253 252 256 261 265 266 266 260 257 257 258 261
259 256 255 256 259 265 268 264 261 256 253 254 254 252 250 248 246 246 247 246 249 251 246 242 242 241 244 249 251 254 257 256 256 257 259 265 267 266 262 258 259 261 263
258 252 252 256 260 266 267 269 266 257 253 250 249 251 249 249 249 248 248 248 248 249 248 246 243 241 245 250 253 254 255 256 256 258 260 264 266 265 261 260 260 262 264
256 261 258 255 258 263 267 268 268 261 254 250 249 252 256 253 250 247 248 248 250 251 249 251 248 245 248 251 254 255 254 254 256 258 259 263 265 265 263 263 263 265 267
262 266 262 258 259 264 266 266 265 263 261 257 255 257 257 253 247 246 248 248 251 252 251 252 252 251 252 253 254 256 255 255 256 259 260 262 264 265 265 266 266 267 270
267 270 264 264 268 267 265 265 263 262 261 259 257 259 260 258 253 250 248 249 252 252 251 251 252 254 256 256 255 256 256 257 258 260 260 260 264 266 266 268 269 270 270
267 270 268 266 263 264 264 263 260 261 261 258 256 258 261 260 257 254 251 251 253 254 254 250 252 255 257 256 254 254 255 258 258 263 264 264 266 268 268 271 273 273 272
265 273 270 262 263 265 267 262 260 260 261 257 256 259 260 259 259 258 258 259 258 259 256 252 252 253 253 253 253 252 255 260 261 264 265 266 266 268 270 272 274 276 274
266 270 264 259 261 262 261 257 257 259 260 262 260 258 258 260 260 257 256 258 256 260 258 254 254 255 253 254 254 253 256 259 262 264 265 266 267 270 272 273 274 276 275
265 266 265 263 260 260 258 251 252 256 262 265 266 261 259 260 259 257 257 258 262 262 257 255 255 256 256 254 253 257 258 261 262 264 266 269 271 272 271 272 275 278 277
265 265 265 264 265 263 260 254 255 260 263 263 263 262 261 260 259 258 260 262 266 261 257 257 259 258 257 256 257 259 260 261 263 265 268 270 272 272 272 273 275 277 277
263 266 266 265 263 262 260 257 259 262 263 262 263 264 263 262 262 260 262 264 266 261 259 260 261 260 259 259 260 261 262 264 266 268 270 270 271 271 272 274 276 276 276
262 264 264 262 261 261 261 263 263 263 263 263 265 265 262 263 263 265 267 269 266 263 265 266 265 264 263 264 265 264 265 266 268 270 271 271 272 273 275 276 277 279 279
264 265 260 259 262 262 263 264 265 264 264 264 264 262 262 264 265 266 268 268 266 266 266 267 268 269 270 270 269 269 269 268 269 270 271 273 274 275 277 278 279 280 280
262 263 260 260 260 262 265 265 265 264 266 266 264 263 265 264 265 267 269 269 270 269 267 267 269 271 272 273 273 272 272 272 273 273 275 274 275 275 277 278 279 281 282
257 260 259 259 260 263 266 267 268 266 265 265 264 265 264 262 264 266 269 271 272 273 270 270 271 273 274 276 277 277 277 275 275 276 276 276 276 277 279 280 281 283 283
253 255 256 258 261 265 268 269 269 269 268 266 264 264 263 264 267 269 271 272 273 273 272 271 271 273 275 276 277 276 275 275 276 277 277 278 278 279 280 281 282 283 284
Height
5885 5885 5885 5884 5884 5884 5884 5883 5884 5885 5886 5886 5887 5888 5889 5889 5890 5890 5890 5891 5891 5891 5892 5892 5892 5893 5893 5893 5893 5894 5894 5894 5894 5894 5894 5894 5894 5894 5893 5893 5892 5892 5891
5883 5883 5883 5883 5882 5882 5882 5882 5883 5883 5883 5884 5884 5885 5886 5886 5887 5887 5887 5888 5889 5889 5889 5890 5890 5891 5891 5891 5892 5892 5892 5893 5893 5893 5893 5893 5893 5892 5892 5891 5891 5890 5890
5881 5882 5882 5881 5881 5880 5880 5880 5880 5881 5881 5881 5882 5883 5883 5884 5885 5885 5885 5886 5886 5886 5886 5887 5888 5888 5889 5889 5890 5890 5890 5891 5891 5891 5891 5891 5891 5890 5890 5890 5889 5888 5888
5879 5879 5879 5879 5878 5878 5877 5877 5878 5879 5879 5879 5880 5880 5881 5882 5882 5882 5883 5883 5883 5883 5884 5884 5885 5886 5886 5887 5887 5888 5888 5889 5889 5889 5889 5889 5889 5888 5888 5888 5887 5887 5886
5876 5877 5877 5876 5876 5875 5875 5875 5876 5876 5877 5877 5878 5878 5879 5879 5880 5880 5880 5880 5880 5881 5881 5882 5882 5883 5883 5884 5885 5885 5886 5886 5886 5887 5887 5887 5887 5886 5886 5886 5886 5885 5885
5874 5874 5874 5874 5874 5873 5873 5873 5873 5874 5874 5875 5875 5875 5876 5876 5877 5877 5877 5878 5878 5878 5879 5879 5880 5880 5881 5882 5882 5883 5883 5884 5884 5884 5884 5884 5884 5884 5884 5884 5884 5884 5883
5870 5871 5871 5871 5871 5871 5871 5871 5871 5871 5872 5872 5872 5873 5873 5873 5873 5874 5875 5875 5875 5876 5877 5877 5877 5878 5878 5879 5880 5880 5881 5881 5882 5882 5882 5882 5882 5882 5882 5882 5882 5881 5881
5866 5867 5868 5868 5868 5868 5868 5868 5868 5868 5869 5869 5869 5870 5870 5870 5871 5871 5872 5872 5873 5873 5874 5875 5875 5875 5876 5877 5877 5878 5878 5879 5879 5879 5879 5879 5879 5879 5879 5879 5879 5879 5879
5863 5864 5865 5865 5865 5865 5865 5865 5865 5866 5866 5866 5866 5867 5867 5867 5868 5868 5869 5869 5870 5870 5871 5872 5872 5873 5873 5874 5874 5875 5875 5876 5876 5876 5876 5876 5876 5876 5876 5876 5876 5877 5876
5860 5860 5861 5862 5862 5862 5862 5862 5863 5863 5863 5863 5863 5863 5864 5864 5864 5865 5865 5866 5867 5867 5868 5869 5869 5870 5870 5871 5871 5872 5872 5872 5873 5873 5873 5873 5873 5873 5872 5872 5873 5873 5873
5856 5857 5858 5858 5859 5860 5860 5860 5859 5859 5859 5860 5860 5860 5860 5861 5861 5862 5862 5863 5863 5864 5864 5865 5866 5866 5867 5868 5868 5869 5869 5869 5869 5869 5869 5869 5869 5869 5869 5869 5869 5869 5869
5852 5854 5854 5854 5855 5856 5856 5856 5856 5856 5855 5856 5856 5856 5856 5857 5858 5859 5859 5860 5860 5861 5861 5862 5862 5863 5864 5864 5865 5865 5865 5865 5866 5866 5866 5866 5865 5865 5865 5865 5865 5865 5865
5848 5849 5850 5851 5852 5852 5853 5853 5853 5852 5852 5853 5853 5854 5854 5854 5855 5856 5856 5857 5857 5857 5858 5858 5859 5859 5860 5860 5861 5861 5862 5862 5862 5862 5862 5862 5862 5862 5862 5861 5861 5861 5861
5845 5845 5845 5847 5847 5848 5849 5849 5849 5849 5850 5850 5850 5851 5851 5851 5851 5852 5852 5853 5853 5854 5854 5854 5855 5855 5855 5856 5856 5857 5857 5857 5858 5858 5858 5858 5857 5858 5858 5857 5857 5856 5856
5841 5842 5841 5842 5843 5843 5844 5845 5846 5846 5846 5847 5847 5847 5848 5848 5848 5848 5848 5849 5850 5850 5850 5850 5851 5851 5851 5851 5852 5853 5853 5853 5853 5853 5853 5853 5853 5853 5853 5853 5852 5851 5851
5837 5838 5838 5838 5839 5839 5840 5841 5842 5842 5843 5843 5843 5844 5844 5844 5843 5844 5844 5845 5845 5845 5845 5846 5846 5847 5847 5847 5848 5848 5848 5849 5849 5849 5849 5849 5849 5848 5848 5848 5847 5846 5846
5832 5833 5833 5834 5834 5835 5835 5836 5837 5838 5839 5839 5839 5839 5840 5839 5839 5840 5840 5840 5841 5841 5841 5841 5841 5842 5842 5842 5843 5843 5844 5844 5844 5844 5844 5844 5844 5843 5843 5843 5842 5841 5840
5827 5827 5828 5829 5830 5831 5831 5832 5833 5833 5834 5834 5835 5835 5835 5835 5835 5835 5836 5836 5836 5837 5837 5837 5837 5837 5837 5838 5838 5838 5839 5839 5839 5839 5839 5839 5838 5838 5838 5837 5837 5836 5835
5821 5822 5823 5823 5824 5825 5827 5828 5828 5829 5830 5830 5830 5830 5830 5831 5831 5831 5831 5832 5832 5832 5832 5832 5832 5833 5833 5833 5833 5833 5833 5833 5833 5833 5833 5833 5832 5832 5831 5831 5830 5830 5829
5818 5818 5819 5820 5821 5822 5822 5824 5825 5825 5825 5826 5826 5826 5826 5826 5827 5827 5827 5827 5827 5827 5827 5827 5827 5827 5827 5828 5828 5828 5828 5828 5828 5827 5827 5827 5826 5825 5824 5824 5823 5823 5821
5814 5815 5816 5817 5817 5818 5819 5820 5820 5821 5821 5822 5822 5822 5822 5822 5822 5823 5823 5823 5822 5822 5822 5822 5822 5822 5822 5822 5822 5822 5822 5822 5822 5821 5821 5820 5819 5818 5818 5817 5816 5815 5814
5809 5811 5812 5811 5812 5813 5814 5815 5816 5816 5817 5817 5817 5817 5817 5818 5818 5818 5818 5818 5817 5817 5817 5817 5817 5817 5817 5817 5817 5816 5816 5816 5815 5815 5814 5813 5813 5812 5811 5810 5809 5808 5806
5804 5805 5807 5807 5807 5808 5810 5810 5811 5812 5812 5812 5813 5813 5813 5813 5813 5813 5813 5813 5813 5813 5813 5813 5812 5812 5812 5811 5811 5810 5810 5809 5809 5808 5807 5807 5806 5805 5804 5803 5801 5800 5798
5800 5800 5802 5803 5804 5804 5805 5806 5806 5807 5807 5807 5808 5808 5808 5808 5808 5808 5808 5808 5808 5808 5808 5807 5807 5807 5806 5806 5805 5804 5803 5803 5802 5801 5800 5800 5799 5798 5797 5795 5793 5791 5789
5796 5797 5798 5799 5800 5800 5801 5801 5801 5802 5802 5802 5803 5803 5802 5802 5802 5803 5803 5803 5803 5802 5802 5802 5802 5801 5800 5800 5799 5798 5797 5796 5795 5794 5793 5792 5791 5789 5788 5786 5784 5782 5779
5791 5792 5793 5794 5795 5795 5796 5796 5796 5796 5796 5796 5797 5796 5796 5797 5797 5797 5797 5797 5797 5796 5796 5796 5795 5795 5794 5793 5792 5791 5789 5788 5787 5786 5785 5783 5782 5780 5778 5776 5774 5771 5768